Time,TemperatureF,DewpointF,PressureIn,WindDirection,WindDirectionDegrees,WindSpeedMPH,WindSpeedGustMPH,Humidity,HourlyPrecipIn,Conditions,Clouds,dailyrainin,SoftwareType,DateUTC
2013-03-28 00:02:00,45.0,43.0,-100.00,North,-999,0.0,0.0,92,-99.99,,,-99.99,,2013-03-28 07:02:00,
2013-03-28 00:12:00,45.0,43.0,-100.00,North,-999,0.0,0.0,92,-99.99,,,-99.99,,2013-03-28 07:12:00,
2013-03-28 00:22:00,45.0,43.0,-100.00,North,-999,0.0,0.0,92,-99.99,,,-99.99,,2013-03-28 07:22:00,
2013-03-28 00:32:00,45.0,43.0,-100.00,North,-999,0.0,0.0,92,-99.99,,,-99.99,,2013-03-28 07:32:00,
2013-03-28 00:42:00,45.0,43.0,-100.00,North,-999,0.0,0.0,92,-99.99,,,-99.99,,2013-03-28 07:42:00,
2013-03-28 00:52:00,45.0,43.0,-100.00,North,-999,0.0,0.0,93,-99.99,,,-99.99,,2013-03-28 07:52:00,
2013-03-28 01:02:00,45.0,43.0,-100.00,North,-999,0.0,0.0,92,-99.99,,,-99.99,,2013-03-28 08:02:00,
2013-03-28 01:11:00,45.0,43.0,-100.00,North,-999,0.0,0.0,92,-99.99,,,-99.99,,2013-03-28 08:11:00,
2013-03-28 01:21:00,45.0,43.0,-100.00,North,-999,0.0,0.0,93,-99.99,,,-99.99,,2013-03-28 08:21:00,
2013-03-28 01:32:00,45.0,43.0,-100.00,North,-999,0.0,0.0,93,-99.99,,,-99.99,,2013-03-28 08:32:00,
2013-03-28 01:42:00,45.0,43.0,-100.00,North,-999,0.0,0.0,93,-99.99,,,-99.99,,2013-03-28 08:42:00,
2013-03-28 01:52:00,45.0,43.0,-100.00,North,-999,0.0,0.0,93,-99.99,,,-99.99,,2013-03-28 08:52:00,
2013-03-28 02:01:00,44.0,42.0,-100.00,SW,225,1.0,2.0,93,-99.99,,,-99.99,,2013-03-28 09:01:00,
2013-03-28 02:12:00,44.0,42.0,-100.00,SW,225,1.0,2.0,93,-99.99,,,-99.99,,2013-03-28 09:12:00,
2013-03-28 02:22:00,44.0,42.0,-100.00,North,-999,0.0,0.0,93,-99.99,,,-99.99,,2013-03-28 09:22:00,
2013-03-28 02:32:00,44.0,42.0,-100.00,SW,225,0.0,1.0,93,-99.99,,,-99.99,,2013-03-28 09:32:00,
2013-03-28 02:42:00,44.0,42.0,-100.00,SW,225,0.0,1.0,93,-99.99,,,-99.99,,2013-03-28 09:42:00,
2013-03-28 02:52:00,44.0,42.0,-100.00,North,-999,0.0,0.0,93,-99.99,,,-99.99,,2013-03-28 09:52:00,
2013-03-28 03:02:00,44.0,42.0,-100.00,North,-999,0.0,0.0,93,-99.99,,,-99.99,,2013-03-28 10:02:00,
2013-03-28 03:12:00,44.0,42.0,-100.00,North,-999,0.0,0.0,93,-99.99,,,-99.99,,2013-03-28 10:12:00,
2013-03-28 03:22:00,44.0,42.0,-100.00,North,-999,0.0,0.0,93,-99.99,,,-99.99,,2013-03-28 10:22:00,
2013-03-28 03:32:00,44.0,42.0,-100.00,North,-999,0.0,0.0,93,-99.99,,,-99.99,,2013-03-28 10:32:00,
2013-03-28 03:42:00,44.0,42.0,-100.00,North,-999,0.0,0.0,93,-99.99,,,-99.99,,2013-03-28 10:42:00,
2013-03-28 03:53:00,44.0,42.0,-100.00,North,-999,0.0,0.0,93,-99.99,,,-99.99,,2013-03-28 10:53:00,
2013-03-28 04:02:00,44.0,42.0,-100.00,North,-999,0.0,0.0,93,-99.99,,,-99.99,,2013-03-28 11:02:00,
2013-03-28 04:12:00,44.0,42.0,-100.00,North,-999,0.0,0.0,93,-99.99,,,-99.99,,2013-03-28 11:12:00,
2013-03-28 04:22:00,43.0,41.0,-100.00,North,-999,0.0,0.0,93,-99.99,,,-99.99,,2013-03-28 11:22:00,
2013-03-28 04:32:00,43.0,41.0,-100.00,North,-999,0.0,0.0,93,-99.99,,,-99.99,,2013-03-28 11:32:00,
2013-03-28 04:42:00,43.0,41.0,-100.00,North,-999,0.0,0.0,93,-99.99,,,-99.99,,2013-03-28 11:42:00,
2013-03-28 04:52:00,43.0,41.0,-100.00,North,-999,0.0,0.0,93,-99.99,,,-99.99,,2013-03-28 11:52:00,
2013-03-28 05:02:00,43.0,41.0,-100.00,North,-999,0.0,0.0,93,-99.99,,,-99.99,,2013-03-28 12:02:00,
2013-03-28 05:12:00,43.0,41.0,-100.00,North,-999,0.0,0.0,93,-99.99,,,-99.99,,2013-03-28 12:12:00,
2013-03-28 05:22:00,43.0,41.0,-100.00,North,-999,0.0,0.0,93,-99.99,,,-99.99,,2013-03-28 12:22:00,
2013-03-28 05:32:00,43.0,41.0,-100.00,North,-999,0.0,0.0,93,-99.99,,,-99.99,,2013-03-28 12:32:00,
2013-03-28 05:42:00,43.0,41.0,-100.00,North,-999,0.0,0.0,93,-99.99,,,-99.99,,2013-03-28 12:42:00,
2013-03-28 05:52:00,43.0,41.0,-100.00,North,-999,0.0,0.0,93,-99.99,,,-99.99,,2013-03-28 12:52:00,
2013-03-28 06:02:00,43.0,41.0,-100.00,North,-999,0.0,0.0,93,-99.99,,,-99.99,,2013-03-28 13:02:00,
2013-03-28 06:12:00,43.0,41.0,-100.00,North,-999,0.0,0.0,93,-99.99,,,-99.99,,2013-03-28 13:12:00,
2013-03-28 06:22:00,43.0,41.0,-100.00,North,-999,0.0,0.0,93,-99.99,,,-99.99,,2013-03-28 13:22:00,
2013-03-28 06:32:00,43.0,41.0,-100.00,SW,225,1.0,1.0,93,-99.99,,,-99.99,,2013-03-28 13:32:00,
2013-03-28 06:41:00,43.0,41.0,-100.00,SW,225,1.0,1.0,93,-99.99,,,-99.99,,2013-03-28 13:41:00,
2013-03-28 06:52:00,43.0,41.0,-100.00,North,-999,0.0,0.0,93,-99.99,,,-99.99,,2013-03-28 13:52:00,
2013-03-28 07:02:00,42.0,41.0,-100.00,North,-999,0.0,0.0,93,-99.99,,,-99.99,,2013-03-28 14:02:00,
2013-03-28 07:12:00,42.0,41.0,-100.00,North,-999,0.0,0.0,93,-99.99,,,-99.99,,2013-03-28 14:12:00,
2013-03-28 07:22:00,42.0,40.0,-100.00,NW,315,0.0,1.0,93,-99.99,,,-99.99,,2013-03-28 14:22:00,
2013-03-28 07:32:00,42.0,40.0,-100.00,NW,315,0.0,1.0,93,-99.99,,,-99.99,,2013-03-28 14:32:00,
2013-03-28 07:42:00,42.0,40.0,-100.00,NW,315,0.0,1.0,93,-99.99,,,-99.99,,2013-03-28 14:42:00,
2013-03-28 08:02:00,42.0,40.0,-100.00,North,-999,0.0,0.0,93,-99.99,,,-99.99,,2013-03-28 15:02:00,
2013-03-28 08:12:00,42.0,40.0,-100.00,North,-999,0.0,0.0,93,-99.99,,,-99.99,,2013-03-28 15:12:00,
2013-03-28 08:21:00,42.0,40.0,-100.00,North,-999,0.0,0.0,93,-99.99,,,-99.99,,2013-03-28 15:21:00,
2013-03-28 08:32:00,42.0,40.0,-100.00,North,-999,0.0,0.0,93,-99.99,,,-99.99,,2013-03-28 15:32:00,
2013-03-28 08:43:00,42.0,40.0,-100.00,North,-999,0.0,0.0,93,-99.99,,,-99.99,,2013-03-28 15:43:00,
2013-03-28 08:53:00,42.0,41.0,-100.00,North,-999,0.0,0.0,93,-99.99,,,-99.99,,2013-03-28 15:53:00,
2013-03-28 09:02:00,43.0,41.0,-100.00,North,-999,0.0,0.0,93,-99.99,,,-99.99,,2013-03-28 16:02:00,
2013-03-28 09:12:00,43.0,41.0,-100.00,North,-999,0.0,0.0,93,-99.99,,,-99.99,,2013-03-28 16:12:00,
2013-03-28 09:23:00,43.0,42.0,-100.00,North,-999,0.0,0.0,93,-99.99,,,-99.99,,2013-03-28 16:23:00,
2013-03-28 09:32:00,44.0,42.0,-100.00,North,-999,0.0,0.0,93,-99.99,,,-99.99,,2013-03-28 16:32:00,
2013-03-28 09:42:00,44.0,42.0,-100.00,North,-999,0.0,0.0,93,-99.99,,,-99.99,,2013-03-28 16:42:00,
2013-03-28 09:52:00,44.0,42.0,-100.00,North,-999,0.0,0.0,93,-99.99,,,-99.99,,2013-03-28 16:52:00,
2013-03-28 10:02:00,45.0,43.0,-100.00,North,-999,0.0,0.0,93,-99.99,,,-99.99,,2013-03-28 17:02:00,
2013-03-28 10:12:00,45.0,43.0,-100.00,North,-999,0.0,0.0,93,-99.99,,,-99.99,,2013-03-28 17:12:00,
2013-03-28 10:22:00,45.0,43.0,-100.00,North,-999,0.0,0.0,93,-99.99,,,-99.99,,2013-03-28 17:22:00,
2013-03-28 10:32:00,46.0,44.0,-100.00,North,-999,0.0,0.0,93,-99.99,,,-99.99,,2013-03-28 17:32:00,
2013-03-28 10:42:00,46.0,44.0,-100.00,North,-999,0.0,0.0,93,-99.99,,,-99.99,,2013-03-28 17:42:00,
2013-03-28 10:52:00,47.0,45.0,-100.00,North,-999,0.0,0.0,93,-99.99,,,-99.99,,2013-03-28 17:52:00,
2013-03-28 11:02:00,47.0,45.0,-100.00,North,-999,0.0,0.0,93,-99.99,,,-99.99,,2013-03-28 18:02:00,
2013-03-28 11:12:00,47.0,45.0,-100.00,North,-999,0.0,0.0,93,-99.99,,,-99.99,,2013-03-28 18:12:00,
2013-03-28 11:22:00,48.0,46.0,-100.00,NE,45,0.0,1.0,93,-99.99,,,-99.99,,2013-03-28 18:22:00,
2013-03-28 11:32:00,48.0,46.0,-100.00,North,-999,0.0,0.0,93,-99.99,,,-99.99,,2013-03-28 18:32:00,
2013-03-28 11:42:00,48.0,46.0,-100.00,North,-999,0.0,0.0,93,-99.99,,,-99.99,,2013-03-28 18:42:00,
2013-03-28 11:52:00,49.0,47.0,-100.00,North,-999,0.0,0.0,93,-99.99,,,-99.99,,2013-03-28 18:52:00,
2013-03-28 12:02:00,50.0,48.0,-100.00,North,-999,0.0,0.0,93,-99.99,,,-99.99,,2013-03-28 19:02:00,
2013-03-28 12:12:00,50.0,48.0,-100.00,North,-999,0.0,0.0,93,-99.99,,,-99.99,,2013-03-28 19:12:00,
2013-03-28 12:22:00,50.0,48.0,-100.00,SE,135,1.0,3.0,93,-99.99,,,-99.99,,2013-03-28 19:22:00,
2013-03-28 12:32:00,52.0,49.0,-100.00,NE,45,0.0,1.0,92,-99.99,,,-99.99,,2013-03-28 19:32:00,
2013-03-28 12:42:00,52.0,49.0,-100.00,NE,45,0.0,1.0,92,-99.99,,,-99.99,,2013-03-28 19:42:00,
2013-03-28 12:52:00,52.0,48.0,-100.00,North,-999,0.0,0.0,86,-99.99,,,-99.99,,2013-03-28 19:52:00,
2013-03-28 13:02:00,52.0,48.0,-100.00,North,-999,0.0,0.0,84,-99.99,,,-99.99,,2013-03-28 20:02:00,
2013-03-28 13:12:00,52.0,48.0,-100.00,North,-999,0.0,0.0,84,-99.99,,,-99.99,,2013-03-28 20:12:00,
2013-03-28 13:22:00,52.0,48.0,-100.00,North,-999,0.0,0.0,84,-99.99,,,-99.99,,2013-03-28 20:22:00,
2013-03-28 13:32:00,53.0,48.0,-100.00,North,-999,0.0,0.0,85,-99.99,,,-99.99,,2013-03-28 20:32:00,
2013-03-28 13:42:00,53.0,48.0,-100.00,North,-999,0.0,0.0,85,-99.99,,,-99.99,,2013-03-28 20:42:00,
2013-03-28 13:53:00,54.0,49.0,-100.00,North,-999,0.0,0.0,85,-99.99,,,-99.99,,2013-03-28 20:53:00,
2013-03-28 14:02:00,54.0,49.0,-100.00,North,-999,0.0,0.0,81,-99.99,,,-99.99,,2013-03-28 21:02:00,
2013-03-28 14:12:00,54.0,49.0,-100.00,North,-999,0.0,0.0,81,-99.99,,,-99.99,,2013-03-28 21:12:00,
2013-03-28 14:22:00,54.0,48.0,-100.00,North,-999,0.0,0.0,78,-99.99,,,-99.99,,2013-03-28 21:22:00,
2013-03-28 14:32:00,54.0,47.0,-100.00,North,-999,0.0,0.0,79,-99.99,,,-99.99,,2013-03-28 21:32:00,
2013-03-28 14:42:00,54.0,47.0,-100.00,North,-999,0.0,0.0,79,-99.99,,,-99.99,,2013-03-28 21:42:00,
2013-03-28 14:53:00,53.0,48.0,-100.00,North,-999,0.0,0.0,83,-99.99,,,-99.99,,2013-03-28 21:53:00,
2013-03-28 15:02:00,53.0,48.0,-100.00,SE,135,0.0,1.0,84,-99.99,,,-99.99,,2013-03-28 22:02:00,
2013-03-28 15:12:00,53.0,48.0,-100.00,SE,135,0.0,1.0,84,-99.99,,,-99.99,,2013-03-28 22:12:00,
2013-03-28 15:22:00,54.0,49.0,-100.00,SW,225,1.0,1.0,82,-99.99,,,-99.99,,2013-03-28 22:22:00,
2013-03-28 15:32:00,55.0,48.0,-100.00,North,-999,0.0,0.0,79,-99.99,,,-99.99,,2013-03-28 22:32:00,
2013-03-28 15:42:00,55.0,48.0,-100.00,North,-999,0.0,0.0,79,-99.99,,,-99.99,,2013-03-28 22:42:00,
2013-03-28 15:52:00,54.0,48.0,-100.00,North,-999,0.0,0.0,78,-99.99,,,-99.99,,2013-03-28 22:52:00,
2013-03-28 16:02:00,54.0,47.0,-100.00,North,-999,0.0,0.0,77,-99.99,,,-99.99,,2013-03-28 23:02:00,
2013-03-28 16:12:00,54.0,47.0,-100.00,North,-999,0.0,0.0,77,-99.99,,,-99.99,,2013-03-28 23:12:00,
2013-03-28 16:22:00,52.0,47.0,-100.00,North,-999,0.0,0.0,83,-99.99,,,-99.99,,2013-03-28 23:22:00,
2013-03-28 16:32:00,52.0,48.0,-100.00,North,-999,0.0,0.0,87,-99.99,,,-99.99,,2013-03-28 23:32:00,
2013-03-28 16:42:00,52.0,48.0,-100.00,North,-999,0.0,0.0,87,-99.99,,,-99.99,,2013-03-28 23:42:00,
2013-03-28 16:52:00,52.0,49.0,-100.00,North,-999,0.0,0.0,89,-99.99,,,-99.99,,2013-03-28 23:52:00,
2013-03-28 17:02:00,53.0,50.0,-100.00,North,-999,0.0,0.0,89,-99.99,,,-99.99,,2013-03-29 00:02:00,
2013-03-28 17:11:00,53.0,50.0,-100.00,North,-999,0.0,0.0,89,-99.99,,,-99.99,,2013-03-29 00:11:00,
2013-03-28 17:22:00,52.0,49.0,-100.00,North,-999,0.0,0.0,90,-99.99,,,-99.99,,2013-03-29 00:22:00,
2013-03-28 17:32:00,52.0,49.0,-100.00,North,-999,0.0,0.0,90,-99.99,,,-99.99,,2013-03-29 00:32:00,
2013-03-28 17:42:00,52.0,49.0,-100.00,North,-999,0.0,0.0,90,-99.99,,,-99.99,,2013-03-29 00:42:00,
2013-03-28 17:52:00,52.0,49.0,-100.00,SW,225,1.0,3.0,90,-99.99,,,-99.99,,2013-03-29 00:52:00,
2013-03-28 18:02:00,51.0,48.0,-100.00,North,-999,0.0,0.0,88,-99.99,,,-99.99,,2013-03-29 01:02:00,
2013-03-28 18:12:00,51.0,48.0,-100.00,North,-999,0.0,0.0,88,-99.99,,,-99.99,,2013-03-29 01:12:00,
2013-03-28 18:22:00,51.0,48.0,-100.00,North,-999,0.0,0.0,88,-99.99,,,-99.99,,2013-03-29 01:22:00,
2013-03-28 18:31:00,52.0,48.0,-100.00,SW,225,1.0,3.0,89,-99.99,,,-99.99,,2013-03-29 01:31:00,
2013-03-28 18:42:00,52.0,48.0,-100.00,SW,225,1.0,3.0,89,-99.99,,,-99.99,,2013-03-29 01:42:00,
2013-03-28 18:52:00,52.0,48.0,-100.00,West,270,1.0,2.0,87,-99.99,,,-99.99,,2013-03-29 01:52:00,
2013-03-28 19:02:00,52.0,48.0,-100.00,North,-999,0.0,0.0,86,-99.99,,,-99.99,,2013-03-29 02:02:00,
2013-03-28 19:12:00,52.0,48.0,-100.00,North,-999,0.0,0.0,86,-99.99,,,-99.99,,2013-03-29 02:12:00,
2013-03-28 19:22:00,51.0,47.0,-100.00,North,-999,0.0,0.0,86,-99.99,,,-99.99,,2013-03-29 02:22:00,
2013-03-28 19:32:00,51.0,48.0,-100.00,North,-999,0.0,0.0,88,-99.99,,,-99.99,,2013-03-29 02:32:00,
2013-03-28 19:42:00,51.0,48.0,-100.00,North,-999,0.0,0.0,88,-99.99,,,-99.99,,2013-03-29 02:42:00,
2013-03-28 19:52:00,51.0,48.0,-100.00,West,270,0.0,1.0,89,-99.99,,,-99.99,,2013-03-29 02:52:00,
2013-03-28 20:02:00,51.0,48.0,-100.00,North,-999,0.0,0.0,89,-99.99,,,-99.99,,2013-03-29 03:02:00,
2013-03-28 20:12:00,51.0,48.0,-100.00,North,-999,0.0,0.0,89,-99.99,,,-99.99,,2013-03-29 03:12:00,
2013-03-28 20:21:00,50.0,47.0,-100.00,North,-999,0.0,0.0,90,-99.99,,,-99.99,,2013-03-29 03:21:00,
2013-03-28 20:32:00,50.0,47.0,-100.00,SW,225,1.0,2.0,90,-99.99,,,-99.99,,2013-03-29 03:32:00,
2013-03-28 20:42:00,50.0,47.0,-100.00,SW,225,1.0,2.0,90,-99.99,,,-99.99,,2013-03-29 03:42:00,
2013-03-28 20:53:00,50.0,47.0,-100.00,North,-999,0.0,0.0,90,-99.99,,,-99.99,,2013-03-29 03:53:00,
2013-03-28 21:02:00,49.0,46.0,-100.00,West,270,1.0,1.0,90,-99.99,,,-99.99,,2013-03-29 04:02:00,
2013-03-28 21:12:00,49.0,46.0,-100.00,West,270,1.0,1.0,90,-99.99,,,-99.99,,2013-03-29 04:12:00,
2013-03-28 21:22:00,49.0,46.0,-100.00,SW,225,0.0,1.0,89,-99.99,,,-99.99,,2013-03-29 04:22:00,
2013-03-28 21:33:00,48.0,45.0,-100.00,SE,135,0.0,1.0,89,-99.99,,,-99.99,,2013-03-29 04:33:00,
2013-03-28 21:42:00,48.0,45.0,-100.00,SE,135,0.0,1.0,89,-99.99,,,-99.99,,2013-03-29 04:42:00,
2013-03-28 21:52:00,48.0,45.0,-100.00,North,-999,0.0,0.0,89,-99.99,,,-99.99,,2013-03-29 04:52:00,
2013-03-28 22:02:00,47.0,44.0,-100.00,North,-999,0.0,0.0,89,-99.99,,,-99.99,,2013-03-29 05:02:00,
2013-03-28 22:12:00,47.0,44.0,-100.00,North,-999,0.0,0.0,89,-99.99,,,-99.99,,2013-03-29 05:12:00,
2013-03-28 22:22:00,47.0,44.0,-100.00,North,-999,0.0,0.0,90,-99.99,,,-99.99,,2013-03-29 05:22:00,
2013-03-28 22:32:00,47.0,44.0,-100.00,North,-999,0.0,0.0,90,-99.99,,,-99.99,,2013-03-29 05:32:00,
2013-03-28 22:43:00,47.0,44.0,-100.00,North,-999,0.0,0.0,90,-99.99,,,-99.99,,2013-03-29 05:43:00,
2013-03-28 22:52:00,46.0,44.0,-100.00,North,-999,0.0,0.0,91,-99.99,,,-99.99,,2013-03-29 05:52:00,
2013-03-28 23:02:00,47.0,44.0,-100.00,West,270,0.0,1.0,91,-99.99,,,-99.99,,2013-03-29 06:02:00,
2013-03-28 23:12:00,47.0,44.0,-100.00,West,270,0.0,1.0,91,-99.99,,,-99.99,,2013-03-29 06:12:00,
2013-03-28 23:22:00,47.0,44.0,-100.00,SW,225,2.0,4.0,91,-99.99,,,-99.99,,2013-03-29 06:22:00,
2013-03-28 23:32:00,47.0,44.0,-100.00,SW,225,2.0,3.0,91,-99.99,,,-99.99,,2013-03-29 06:32:00,
2013-03-28 23:42:00,47.0,44.0,-100.00,SW,225,2.0,3.0,91,-99.99,,,-99.99,,2013-03-29 06:42:00,
2013-03-28 23:52:00,46.0,44.0,-100.00,North,-999,0.0,0.0,91,-99.99,,,-99.99,,2013-03-29 06:52:00,